Weather History for Faleolo, Samoa

Change the Weather History Date:

Wednesday, February 20, 2013

  Actual Average Record
Temperature  
Mean Temperature 81 °F -  
Max Temperature 87 °F 85 °F 91 °F (2000)
Min Temperature 75 °F 74 °F 73 °F (2008)
Cooling Degree Days 16    
Growing Degree Days 31 (Base 50)    
Moisture  
Dew Point 76 °F    
Average Humidity 86    
Maximum Humidity 100    
Minimum Humidity 70    
Precipitation  
Precipitation 0.16 in - - ()
Sea Level Pressure  
Sea Level Pressure 29.77 in    
Wind  
Wind Speed 6 mph ()    
Max Wind Speed 21 mph    
Max Gust Speed -    
Visibility 7.5 miles    
Events Rain    
Averages and records for this station are not official NWS values.
T = Trace of Precipitation, MM = Missing Value Source: Averaged Metar Reports

Daily Weather History Graph

Daily Weather History Graph

Search for Another Location

Airport:

Trip Planner

Search our weather history database for the weather conditions in past years. The results will help you decide how hot, cold, wet, or windy it might be!

Date:

Astronomy

Feb. 21, 2013 Rise Set
Actual Time 7:27 AM WSDT 7:55 PM WSDT
Civil Twilight 7:05 AM WSDT 8:17 PM WSDT
Nautical Twilight 6:40 AM WSDT 8:42 PM WSDT
Astronomical Twilight 6:14 AM WSDT 9:08 PM WSDT
Moon 3:29 PM WSDT (2/20) 2:20 AM WSDT (2/20)
Length of Visible Light 13h 11m
Length of Day
12h 28m
Waxing Gibbous, 69% of the Moon is Illuminated
Feb 20
Waxing Gibbous
Feb 26
Full
Mar 5
Last Quarter
Mar 12
New
Mar 20
First Quarter

Hourly Weather History & Observations

Time (WSDT) Temp. Heat Index Dew Point Humidity Pressure Visibility Wind Dir Wind Speed Gust Speed Precip Events Conditions
12:00 AM 80.6 °F 87.1 °F 77.0 °F 89% 29.83 in 6.2 mi ESE 2.3 mph - N/A   Mostly Cloudy
1:00 AM 80.6 °F 86.2 °F 75.2 °F 84% 29.77 in 6.2 mi ESE 3.5 mph - N/A   Mostly Cloudy
2:00 AM 80 °F - 75 °F 79% 29.78 in 12 mi ESE 2.3 mph - -   Scattered Clouds
2:00 AM 80.6 °F 86.2 °F 75.2 °F 84% 29.77 in 6.2 mi ESE 2.3 mph - N/A   Mostly Cloudy
3:00 AM 78.8 °F - 75.2 °F 89% 29.65 in 6.2 mi ESE 3.5 mph - N/A   Scattered Clouds
5:00 AM 78 °F - 74 °F 86% 29.74 in 12 mi East 5.8 mph - -   Partly Cloudy
5:00 AM 78.8 °F - 75.2 °F 89% 29.71 in 6.2 mi East 6.9 mph - N/A   Partly Cloudy
6:00 AM 77.0 °F - 75.2 °F 94% 29.74 in 6.2 mi ESE 4.6 mph - N/A   Scattered Clouds
7:00 AM 77.0 °F - 75.2 °F 94% 29.74 in 6.2 mi ESE 8.1 mph - N/A   Scattered Clouds
8:00 AM 79 °F - 75 °F 83% 29.76 in 12 mi SE 2.3 mph - -   Mostly Cloudy
8:00 AM 78.8 °F - 75.2 °F 89% 29.74 in 6.2 mi SE 2.3 mph - N/A   Mostly Cloudy
9:00 AM 80.6 °F 87.1 °F 77.0 °F 89% 29.77 in 6.2 mi ESE 3.5 mph - N/A   Mostly Cloudy
10:00 AM 82.4 °F 90.9 °F 77.0 °F 84% 29.77 in 6.2 mi East 5.8 mph - N/A   Mostly Cloudy
11:00 AM 84 °F - 78 °F 78% 29.80 in 12 mi NE 10.4 mph - - Rain Light Drizzle
11:00 AM 84.2 °F 96.1 °F 78.8 °F 84% 29.80 in - NE 10.4 mph - N/A   Light Drizzle
12:00 PM 86.0 °F 96.9 °F 77.0 °F 74% 29.77 in 6.2 mi ENE 10.4 mph - N/A   Mostly Cloudy
1:00 PM 87.8 °F 99.7 °F 77.0 °F 70% 29.77 in 6.2 mi ENE 6.9 mph - N/A   Mostly Cloudy
2:00 PM 85 °F - 77 °F 70% 29.77 in 12 mi NE 20.7 mph - -   Mostly Cloudy
2:00 PM 86.0 °F 96.9 °F 77.0 °F 74% 29.77 in 6.2 mi NE 20.7 mph - N/A   Mostly Cloudy
3:00 PM 84.2 °F 92.3 °F 75.2 °F 74% 29.74 in 6.2 mi ENE 13.8 mph - N/A   Mostly Cloudy
4:00 PM 86.0 °F 96.9 °F 77.0 °F 74% 29.74 in 6.2 mi ENE 10.4 mph - N/A   Overcast
5:00 PM 78 °F - 76 °F 91% 29.76 in 12 mi ENE 10.4 mph - - Rain Light Drizzle
5:00 PM 78.8 °F - 75.2 °F 89% 29.74 in 6.2 mi ENE 10.4 mph - N/A   Drizzle
6:00 PM 77.0 °F - 75.2 °F 94% 29.77 in 6.2 mi ENE 9.2 mph - N/A   Overcast
7:00 PM 77.0 °F - 75.2 °F 94% 29.77 in 6.2 mi ENE 9.2 mph - N/A   Overcast
8:00 PM 75.2 °F - 75.2 °F 100% 29.80 in 6.2 mi ESE 8.1 mph - N/A   Drizzle
9:00 PM 75.2 °F - 75.2 °F 100% 29.80 in 6.2 mi East 9.2 mph - N/A   Overcast
10:00 PM 75.2 °F - 75.2 °F 100% 29.86 in 6.2 mi NE 18.4 mph - N/A   Overcast